When you browse on this site, cookies collect data to enhance your experience and personalize the content and advertising you see.
Visit our Privacy Policy to learn more. By continuing to use the site, you agree to this use of cookies and data.
  • în România
  • Lista ţărilor
  • Pe 7 zile
  • Temperatura apei
  • Meteo pe hartă
  • Widget-uri
  • user-avatar
    Intrare

    Meteo pe oră la Bukoba

    Astăzi, 31 Mai, Duminică

    Timp Temperatura Precipitaţii Vânt Presiune Umiditate
    00:00 +23°C° 0 mm 2 m/s 663 mmHg 66%
    01:00 +21°C° 0 mm 3 m/s 663 mmHg 68%
    02:00 +21°C° 0 mm 4 m/s 663 mmHg 69%
    03:00 +21°C° 0 mm 5 m/s 663 mmHg 68%
    04:00 +21°C° 0 mm 5 m/s 663 mmHg 67%
    05:00 +21°C° 0 mm 5 m/s 663 mmHg 67%
    06:00 +22°C° 0 mm 5 m/s 664 mmHg 65%
    07:00 +23°C° 0 mm 6 m/s 664 mmHg 63%
    08:00 +24°C° 0 mm 6 m/s 665 mmHg 62%
    09:00 +26°C° 0 mm 6 m/s 665 mmHg 58%
    10:00 +27°C° 0 mm 6 m/s 665 mmHg 54%
    11:00 +28°C° 0 mm 6 m/s 665 mmHg 51%
    12:00 +28°C° 0 mm 6 m/s 664 mmHg 49%
    13:00 +28°C° 0 mm 5 m/s 664 mmHg 47%
    14:00 +28°C° 0 mm 4 m/s 663 mmHg 45%
    15:00 +27°C° 0 mm 3 m/s 663 mmHg 50%
    16:00 +26°C° 0 mm 3 m/s 662 mmHg 55%
    17:00 +25°C° 0 mm 2 m/s 662 mmHg 60%
    18:00 +23°C° 0 mm 1 m/s 662 mmHg 63%
    19:00 +22°C° 0 mm 1 m/s 662 mmHg 66%
    20:00 +18°C° 0 mm 0 m/s 663 mmHg 69%
    21:00 +20°C° 0 mm 1 m/s 663 mmHg 68%
    22:00 +19°C° 0 mm 1 m/s 663 mmHg 67%
    23:00 +18°C° 0 mm 2 m/s 663 mmHg 66%

    Mâine, 1 Iunie, Luni

    Timp Temperatura Precipitaţii Vânt Presiune Umiditate
    00:00 +18°C° 0 mm 2 m/s 663 mmHg 68%
    01:00 +17°C° 0 mm 3 m/s 663 mmHg 70%
    02:00 +17°C° 0 mm 3 m/s 663 mmHg 71%
    03:00 +17°C° 0 mm 4 m/s 663 mmHg 74%
    04:00 +17°C° 0 mm 4 m/s 663 mmHg 76%
    05:00 +17°C° 0 mm 5 m/s 663 mmHg 78%
    06:00 +19°C° 0 mm 5 m/s 664 mmHg 73%
    07:00 +21°C° 0 mm 5 m/s 665 mmHg 69%
    08:00 +23°C° 0 mm 6 m/s 666 mmHg 65%
    09:00 +24°C° 0 mm 6 m/s 665 mmHg 62%
    10:00 +26°C° 0 mm 6 m/s 665 mmHg 59%
    11:00 +27°C° 0 mm 6 m/s 665 mmHg 56%
    12:00 +28°C° 0 mm 6 m/s 664 mmHg 53%
    13:00 +28°C° 0 mm 5 m/s 664 mmHg 51%
    14:00 +28°C° 0 mm 5 m/s 664 mmHg 49%
    15:00 +27°C° 0 mm 4 m/s 663 mmHg 54%
    16:00 +26°C° 0 mm 3 m/s 663 mmHg 58%
    17:00 +25°C° 0 mm 2 m/s 662 mmHg 63%
    18:00 +24°C° 0 mm 1 m/s 663 mmHg 68%
    19:00 +22°C° 0 mm 1 m/s 663 mmHg 72%
    20:00 +18°C° 0 mm 0 m/s 663 mmHg 77%
    21:00 +18°C° 0 mm 0 m/s 663 mmHg 77%
    22:00 +19°C° 0 mm 1 m/s 663 mmHg 77%
    23:00 +19°C° 0 mm 1 m/s 662 mmHg 77%

    Poimâine, 2 Iunie, Marţi

    Timp Temperatura Precipitaţii Vânt Presiune Umiditate
    00:00 +18°C° 0 mm 2 m/s 662 mmHg 77%
    01:00 +17°C° 0 mm 2 m/s 662 mmHg 78%
    02:00 +17°C° 0 mm 3 m/s 662 mmHg 78%
    03:00 +17°C° 0 mm 3 m/s 662 mmHg 80%
    04:00 +17°C° 0 mm 4 m/s 662 mmHg 81%
    05:00 +16°C° 0 mm 5 m/s 663 mmHg 83%
    06:00 +19°C° 0 mm 5 m/s 663 mmHg 77%
    07:00 +21°C° 0 mm 5 m/s 664 mmHg 71%
    08:00 +23°C° 0 mm 5 m/s 665 mmHg 66%
    09:00 +25°C° 0 mm 5 m/s 665 mmHg 60%
    10:00 +26°C° 0 mm 5 m/s 665 mmHg 55%
    11:00 +28°C° 0 mm 6 m/s 665 mmHg 49%
    12:00 +28°C° 0 mm 5 m/s 664 mmHg 48%
    13:00 +28°C° 0 mm 5 m/s 664 mmHg 48%
    14:00 +28°C° 0 mm 4 m/s 663 mmHg 47%
    15:00 +27°C° 0 mm 4 m/s 663 mmHg 52%
    16:00 +26°C° 0 mm 3 m/s 662 mmHg 57%
    17:00 +25°C° 0 mm 2 m/s 662 mmHg 62%
    18:00 +24°C° 0 mm 2 m/s 662 mmHg 66%
    19:00 +22°C° 0 mm 1 m/s 662 mmHg 70%
    20:00 +20°C° 0 mm 1 m/s 663 mmHg 74%
    21:00 +19°C° 0 mm 2 m/s 662 mmHg 74%
    22:00 +19°C° 0 mm 2 m/s 662 mmHg 74%
    23:00 +19°C° 0 mm 3 m/s 662 mmHg 73%

    3 Iunie, Miercuri

    Timp Temperatura Precipitaţii Vânt Presiune Umiditate
    00:00 +18°C° 0 mm 3 m/s 662 mmHg 75%
    01:00 +18°C° 0 mm 3 m/s 662 mmHg 76%
    02:00 +18°C° 0 mm 3 m/s 662 mmHg 78%
    03:00 +18°C° 0 mm 4 m/s 662 mmHg 78%
    04:00 +18°C° 0 mm 4 m/s 662 mmHg 79%
    05:00 +17°C° 0 mm 5 m/s 662 mmHg 80%
    06:00 +20°C° 0 mm 5 m/s 663 mmHg 75%
    07:00 +22°C° 0 mm 5 m/s 664 mmHg 69%
    08:00 +23°C° 0 mm 5 m/s 664 mmHg 64%
    09:00 +25°C° 0.1 mm 5 m/s 664 mmHg 60%
    10:00 +27°C° 0.1 mm 5 m/s 664 mmHg 57%
    11:00 +28°C° 0.1 mm 6 m/s 664 mmHg 53%
    12:00 +28°C° 0 mm 5 m/s 663 mmHg 52%
    13:00 +28°C° 0 mm 5 m/s 663 mmHg 51%
    14:00 +28°C° 0 mm 4 m/s 662 mmHg 50%
    15:00 +28°C° 0 mm 3 m/s 662 mmHg 53%
    16:00 +27°C° 0 mm 2 m/s 662 mmHg 57%
    17:00 +26°C° 0 mm 1 m/s 661 mmHg 61%
    18:00 +24°C° 0 mm 1 m/s 662 mmHg 65%
    19:00 +23°C° 0 mm 1 m/s 662 mmHg 69%
    20:00 +21°C° 0 mm 1 m/s 662 mmHg 73%
    21:00 +21°C° 0 mm 1 m/s 662 mmHg 73%
    22:00 +19°C° 0 mm 2 m/s 662 mmHg 73%
    23:00 +19°C° 0 mm 3 m/s 662 mmHg 74%

    4 Iunie, Joi

    Timp Temperatura Precipitaţii Vânt Presiune Umiditate
    00:00 +19°C° 0.1 mm 3 m/s 662 mmHg 75%
    01:00 +19°C° 0.1 mm 3 m/s 662 mmHg 77%
    02:00 +18°C° 0.1 mm 3 m/s 662 mmHg 78%
    03:00 +18°C° 0.5 mm 4 m/s 662 mmHg 81%
    04:00 +18°C° 0.5 mm 4 m/s 662 mmHg 83%
    05:00 +18°C° 0.5 mm 4 m/s 662 mmHg 86%
    06:00 +20°C° 0.7 mm 4 m/s 663 mmHg 84%
    07:00 +21°C° 0.7 mm 4 m/s 664 mmHg 83%
    08:00 +22°C° 0.7 mm 5 m/s 664 mmHg 81%
    09:00 +23°C° 0.5 mm 5 m/s 664 mmHg 77%
    10:00 +25°C° 0.5 mm 5 m/s 664 mmHg 73%
    11:00 +26°C° 0.5 mm 5 m/s 664 mmHg 69%
    12:00 +26°C° 0.1 mm 5 m/s 664 mmHg 64%
    13:00 +27°C° 0.1 mm 4 m/s 663 mmHg 60%
    14:00 +27°C° 0.1 mm 4 m/s 663 mmHg 56%
    15:00 +26°C° 0 mm 3 m/s 663 mmHg 60%
    16:00 +25°C° 0 mm 2 m/s 662 mmHg 64%
    17:00 +24°C° 0 mm 2 m/s 662 mmHg 69%
    18:00 +23°C° 0 mm 1 m/s 662 mmHg 72%
    19:00 +22°C° 0 mm 1 m/s 662 mmHg 75%
    20:00 +19°C° 0 mm 0 m/s 663 mmHg 78%
    21:00 +21°C° 0 mm 1 m/s 663 mmHg 80%
    22:00 +19°C° 0 mm 2 m/s 663 mmHg 83%
    23:00 +19°C° 0 mm 2 m/s 663 mmHg 85%

    5 Iunie, Vineri

    Timp Temperatura Precipitaţii Vânt Presiune Umiditate
    00:00 +18°C° 0.1 mm 2 m/s 662 mmHg 87%
    01:00 +18°C° 0.1 mm 3 m/s 662 mmHg 88%
    02:00 +18°C° 0.1 mm 3 m/s 662 mmHg 90%
    03:00 +18°C° 0.3 mm 3 m/s 662 mmHg 89%
    04:00 +18°C° 0.3 mm 4 m/s 663 mmHg 88%
    05:00 +18°C° 0.3 mm 4 m/s 663 mmHg 87%
    06:00 +20°C° 0.1 mm 4 m/s 664 mmHg 81%
    07:00 +22°C° 0.1 mm 5 m/s 665 mmHg 74%
    08:00 +25°C° 0.1 mm 5 m/s 665 mmHg 68%
    09:00 +25°C° 0.1 mm 5 m/s 665 mmHg 65%
    10:00 +26°C° 0.1 mm 5 m/s 665 mmHg 62%
    11:00 +27°C° 0.1 mm 5 m/s 665 mmHg 60%
    12:00 +28°C° 0 mm 5 m/s 664 mmHg 57%
    13:00 +28°C° 0 mm 5 m/s 664 mmHg 54%
    14:00 +28°C° 0 mm 4 m/s 663 mmHg 51%
    15:00 +27°C° 0 mm 4 m/s 663 mmHg 54%
    16:00 +27°C° 0 mm 3 m/s 663 mmHg 57%
    17:00 +26°C° 0 mm 2 m/s 662 mmHg 60%
    18:00 +24°C° 0 mm 1 m/s 662 mmHg 65%
    19:00 +23°C° 0 mm 1 m/s 663 mmHg 70%
    20:00 +21°C° 0 mm 1 m/s 663 mmHg 75%
    21:00 +20°C° 0 mm 1 m/s 663 mmHg 76%
    22:00 +20°C° 0 mm 1 m/s 663 mmHg 76%
    23:00 +19°C° 0 mm 2 m/s 663 mmHg 77%
    Arată mai mult